When you browse on this site, cookies collect data to enhance your experience and personalize the content and advertising you see.
Visit our Privacy Policy to learn more. By continuing to use the site, you agree to this use of cookies and data.
  • Em Portugal
  • Lista de países
  • Para 7 dias
  • Temperatura da água
  • Mapas de satélite
  • Mapa do tempo
  • Widgets de tempo
  • user-avatar
    Iniciar Sessão

    Previsão horária em Pontypool

    Hoje, 20 Julho, Sábado

    Tempo Temperatura Precipitação Vento Pressão Humidade
    00:00 +15°C° 0 mm 4 m/s 739 mmHg 95%
    01:00 +15°C° 0.2 mm 4 m/s 739 mmHg 96%
    02:00 +15°C° 0.2 mm 4 m/s 738 mmHg 96%
    03:00 +15°C° 0.2 mm 5 m/s 738 mmHg 96%
    04:00 +15°C° 0.1 mm 5 m/s 738 mmHg 96%
    05:00 +14°C° 0.1 mm 5 m/s 738 mmHg 95%
    06:00 +14°C° 0 mm 5 m/s 738 mmHg 94%
    07:00 +15°C° 0 mm 6 m/s 738 mmHg 92%
    08:00 +15°C° 0 mm 6 m/s 739 mmHg 90%
    09:00 +15°C° 0 mm 7 m/s 739 mmHg 87%
    10:00 +16°C° 0.1 mm 7 m/s 740 mmHg 86%
    11:00 +16°C° 0.1 mm 7 m/s 741 mmHg 85%
    12:00 +17°C° 0.1 mm 7 m/s 741 mmHg 84%
    13:00 +17°C° 0 mm 6 m/s 742 mmHg 83%
    14:00 +17°C° 0 mm 6 m/s 743 mmHg 82%
    15:00 +17°C° 0 mm 6 m/s 743 mmHg 81%
    16:00 +17°C° 0 mm 6 m/s 743 mmHg 80%
    17:00 +17°C° 0 mm 6 m/s 744 mmHg 80%
    18:00 +17°C° 0 mm 5 m/s 744 mmHg 80%
    19:00 +15°C° 0 mm 5 m/s 745 mmHg 84%
    20:00 +14°C° 0 mm 4 m/s 746 mmHg 89%
    21:00 +12°C° 0 mm 3 m/s 746 mmHg 93%
    22:00 +12°C° 0 mm 3 m/s 747 mmHg 94%
    23:00 +12°C° 0 mm 3 m/s 747 mmHg 94%

    Amanhã, 21 Julho, Domingo

    Tempo Temperatura Precipitação Vento Pressão Humidade
    00:00 +13°C° 0 mm 2 m/s 747 mmHg 95%
    01:00 +13°C° 0 mm 2 m/s 747 mmHg 95%
    02:00 +13°C° 0 mm 2 m/s 747 mmHg 96%
    03:00 +13°C° 0 mm 2 m/s 748 mmHg 96%
    04:00 +14°C° 0 mm 2 m/s 748 mmHg 95%
    05:00 +14°C° 0 mm 2 m/s 748 mmHg 95%
    06:00 +14°C° 0 mm 3 m/s 749 mmHg 94%
    07:00 +16°C° 0 mm 3 m/s 749 mmHg 89%
    08:00 +17°C° 0 mm 4 m/s 749 mmHg 85%
    09:00 +18°C° 0 mm 4 m/s 750 mmHg 80%
    10:00 +19°C° 0 mm 5 m/s 750 mmHg 78%
    11:00 +19°C° 0 mm 5 m/s 750 mmHg 75%
    12:00 +20°C° 0 mm 5 m/s 750 mmHg 72%
    13:00 +20°C° 0 mm 5 m/s 750 mmHg 73%
    14:00 +21°C° 0 mm 6 m/s 750 mmHg 73%
    15:00 +21°C° 0 mm 6 m/s 750 mmHg 73%
    16:00 +20°C° 0 mm 6 m/s 750 mmHg 76%
    17:00 +20°C° 0 mm 5 m/s 750 mmHg 79%
    18:00 +19°C° 0 mm 5 m/s 750 mmHg 82%
    19:00 +17°C° 0 mm 5 m/s 750 mmHg 85%
    20:00 +17°C° 0 mm 4 m/s 750 mmHg 89%
    21:00 +15°C° 0 mm 4 m/s 750 mmHg 93%
    22:00 +15°C° 0 mm 4 m/s 750 mmHg 94%
    23:00 +15°C° 0 mm 4 m/s 750 mmHg 95%

    Depois de amanhã, 22 Julho, Segunda-feira

    Tempo Temperatura Precipitação Vento Pressão Humidade
    00:00 +14°C° 0 mm 4 m/s 750 mmHg 96%
    01:00 +14°C° 0 mm 4 m/s 750 mmHg 96%
    02:00 +14°C° 0 mm 4 m/s 750 mmHg 96%
    03:00 +14°C° 0 mm 4 m/s 750 mmHg 95%
    04:00 +15°C° 0 mm 4 m/s 750 mmHg 94%
    05:00 +15°C° 0 mm 4 m/s 750 mmHg 93%
    06:00 +17°C° 0 mm 4 m/s 750 mmHg 92%
    07:00 +17°C° 0 mm 5 m/s 750 mmHg 89%
    08:00 +19°C° 0 mm 5 m/s 750 mmHg 86%
    09:00 +20°C° 0 mm 6 m/s 751 mmHg 84%
    10:00 +21°C° 0 mm 5 m/s 751 mmHg 82%
    11:00 +22°C° 0 mm 5 m/s 751 mmHg 80%
    12:00 +22°C° 0 mm 5 m/s 751 mmHg 78%
    13:00 +23°C° 0 mm 5 m/s 751 mmHg 77%
    14:00 +23°C° 0 mm 5 m/s 751 mmHg 76%
    15:00 +25°C° 0 mm 5 m/s 751 mmHg 74%
    16:00 +23°C° 0 mm 5 m/s 751 mmHg 77%
    17:00 +23°C° 0 mm 4 m/s 751 mmHg 79%
    18:00 +22°C° 0 mm 4 m/s 750 mmHg 81%
    19:00 +20°C° 0 mm 3 m/s 750 mmHg 85%
    20:00 +19°C° 0 mm 2 m/s 751 mmHg 88%
    21:00 +18°C° 0 mm 1 m/s 751 mmHg 92%
    22:00 +18°C° 0 mm 1 m/s 750 mmHg 92%
    23:00 +18°C° 0 mm 1 m/s 750 mmHg 92%

    23 Julho, Terça-feira

    Tempo Temperatura Precipitação Vento Pressão Humidade
    00:00 +15°C° 0 mm 0 m/s 750 mmHg 92%
    01:00 +15°C° 0 mm 0 m/s 750 mmHg 93%
    02:00 +15°C° 0 mm 0 m/s 750 mmHg 93%
    03:00 +14°C° 0 mm 0 m/s 750 mmHg 93%
    04:00 +15°C° 0 mm 0 m/s 749 mmHg 93%
    05:00 +18°C° 0 mm 1 m/s 749 mmHg 93%
    06:00 +18°C° 0 mm 1 m/s 749 mmHg 93%
    07:00 +20°C° 0 mm 1 m/s 749 mmHg 86%
    08:00 +20°C° 0 mm 2 m/s 749 mmHg 79%
    09:00 +23°C° 0 mm 2 m/s 748 mmHg 72%
    10:00 +24°C° 0 mm 2 m/s 748 mmHg 71%
    11:00 +25°C° 0 mm 3 m/s 748 mmHg 69%
    12:00 +27°C° 0 mm 4 m/s 747 mmHg 67%
    13:00 +27°C° 0 mm 4 m/s 747 mmHg 66%
    14:00 +28°C° 0 mm 4 m/s 747 mmHg 64%
    15:00 +29°C° 0 mm 5 m/s 746 mmHg 63%
    16:00 +28°C° 0 mm 4 m/s 746 mmHg 67%
    17:00 +28°C° 0 mm 4 m/s 745 mmHg 71%
    18:00 +27°C° 0 mm 3 m/s 745 mmHg 75%
    19:00 +25°C° 0.1 mm 3 m/s 745 mmHg 79%
    20:00 +24°C° 0.1 mm 2 m/s 745 mmHg 84%
    21:00 +22°C° 0.1 mm 1 m/s 744 mmHg 88%
    22:00 +22°C° 1.3 mm 1 m/s 744 mmHg 90%
    23:00 +20°C° 1.3 mm 2 m/s 744 mmHg 92%

    24 Julho, Quarta-feira

    Tempo Temperatura Precipitação Vento Pressão Humidade
    00:00 +20°C° 1.3 mm 2 m/s 744 mmHg 94%
    01:00 +20°C° 0.6 mm 1 m/s 744 mmHg 94%
    02:00 +20°C° 0.6 mm 1 m/s 744 mmHg 94%
    03:00 +17°C° 0.6 mm 0 m/s 743 mmHg 94%
    04:00 +20°C° 0 mm 1 m/s 743 mmHg 94%
    05:00 +20°C° 0 mm 1 m/s 744 mmHg 94%
    06:00 +20°C° 0 mm 1 m/s 744 mmHg 93%
    07:00 +21°C° 0 mm 1 m/s 744 mmHg 89%
    08:00 +21°C° 0 mm 2 m/s 744 mmHg 84%
    09:00 +23°C° 0 mm 2 m/s 744 mmHg 79%
    10:00 +24°C° 0 mm 3 m/s 745 mmHg 74%
    11:00 +25°C° 0 mm 3 m/s 745 mmHg 69%
    12:00 +25°C° 0 mm 4 m/s 745 mmHg 64%
    13:00 +25°C° 0 mm 3 m/s 745 mmHg 63%
    14:00 +26°C° 0 mm 3 m/s 744 mmHg 63%
    15:00 +26°C° 0 mm 2 m/s 744 mmHg 62%
    16:00 +25°C° 0 mm 2 m/s 744 mmHg 66%
    17:00 +25°C° 0 mm 1 m/s 744 mmHg 70%
    18:00 +25°C° 0 mm 1 m/s 744 mmHg 75%
    19:00 +23°C° 0 mm 1 m/s 744 mmHg 77%
    20:00 +22°C° 0 mm 1 m/s 744 mmHg 79%
    21:00 +21°C° 0 mm 1 m/s 743 mmHg 81%
    22:00 +20°C° 0 mm 1 m/s 743 mmHg 82%
    23:00 +20°C° 0 mm 1 m/s 743 mmHg 83%

    25 Julho, Quinta-feira

    Tempo Temperatura Precipitação Vento Pressão Humidade
    00:00 +19°C° 0 mm 1 m/s 742 mmHg 84%
    01:00 +19°C° 0 mm 1 m/s 742 mmHg 85%
    02:00 +19°C° 0 mm 1 m/s 741 mmHg 86%
    03:00 +18°C° 0 mm 1 m/s 740 mmHg 88%
    04:00 +19°C° 0 mm 1 m/s 740 mmHg 87%
    05:00 +19°C° 0 mm 1 m/s 740 mmHg 87%
    06:00 +19°C° 0 mm 1 m/s 740 mmHg 86%
    07:00 +20°C° 0.2 mm 1 m/s 740 mmHg 86%
    08:00 +20°C° 0.2 mm 2 m/s 740 mmHg 86%
    09:00 +21°C° 0.2 mm 2 m/s 740 mmHg 86%
    10:00 +21°C° 0.4 mm 2 m/s 740 mmHg 87%
    11:00 +21°C° 0.4 mm 3 m/s 740 mmHg 87%
    12:00 +21°C° 0.4 mm 3 m/s 740 mmHg 88%
    13:00 +21°C° 0.2 mm 4 m/s 740 mmHg 88%
    14:00 +21°C° 0.2 mm 5 m/s 740 mmHg 88%
    15:00 +21°C° 0.2 mm 5 m/s 741 mmHg 89%
    16:00 +20°C° 0.1 mm 6 m/s 741 mmHg 85%
    17:00 +20°C° 0.1 mm 6 m/s 741 mmHg 81%
    18:00 +19°C° 0.1 mm 6 m/s 741 mmHg 78%
    19:00 +17°C° 0 mm 6 m/s 741 mmHg 80%
    20:00 +16°C° 0 mm 6 m/s 741 mmHg 81%
    21:00 +16°C° 0 mm 5 m/s 742 mmHg 83%
    22:00 +15°C° 0 mm 5 m/s 742 mmHg 86%
    23:00 +14°C° 0 mm 5 m/s 742 mmHg 90%
    Mostrar mais